Location: Grossmotten
(48.5500°N, 15.3833°E)
Time: 05:05:04
(UTC+00:00)

NOAA 6 - Pass Details

Date: 15 November 2019
Orbit: 771 x 788 km, 98.6° (Epoch: 14 December)

Event Time Altitude Azimuth Distance (km) Brightness Sun altitude
Rises 05:11:45 0° 11° (N) 3,270 7.2 -9.1°
Reaches altitude 10° 05:14:06 10° 7° (N) 2,336 6.4 -8.7°
Maximum altitude 05:19:08 57° 290° (WNW) 910 4.1 -7.9°
Drops below altitude 10° 05:24:07 10° 213° (SSW) 2,313 6.4 -7.2°
Sets 05:26:26 0° 209° (SSW) 3,235 7.1 -6.8°
